カタログに戻る

STARLINK-37835

運用中通信SSO
NORAD 69500·PAYLOAD·🇺🇸 United States

打ち上げ Jun 11, 2026 から Vandenberg Space Force Base

Loading…

次のパス (今後24時間)

TLE

最新Source: CelesTrak SupGP

元期: Sep 14, 2026, 20:58 UTC

1 69500C 26131Y   26257.87409722  .00031619  00000+0  98183-3 0  2572
2 69500  97.2830 278.8857 0001419  89.6388 120.8509 15.33413585    17

AllMySatでSTARLINK-37835をリアルタイム追跡

Download on the App Store